Time,TemperatureF,DewpointF,PressureIn,WindDirection,WindDirectionDegrees,WindSpeedMPH,WindSpeedGustMPH,Humidity,HourlyPrecipIn,Conditions,Clouds,dailyrainin,SoftwareType,DateUTC
2013-03-21 00:00:00,20.1,11.6,30.13,NW,319,6.0,8.0,69,0.00,,---,0.00,VWS V14.01,2013-03-21 05:00:00,
2013-03-21 00:05:00,20.0,11.5,30.13,WNW,296,5.0,10.0,69,0.00,,---,0.00,VWS V14.01,2013-03-21 05:05:00,
2013-03-21 00:10:00,19.9,11.4,30.14,WNW,297,5.0,11.0,69,0.00,,---,0.00,VWS V14.01,2013-03-21 05:10:00,
2013-03-21 00:15:00,19.7,11.5,30.14,NW,319,9.0,11.0,70,0.00,,---,0.00,VWS V14.01,2013-03-21 05:15:00,
2013-03-21 00:20:00,19.7,11.5,30.13,NNW,338,8.0,11.0,70,0.00,,---,0.00,VWS V14.01,2013-03-21 05:20:00,
2013-03-21 00:25:00,19.7,11.5,30.13,NNW,333,5.0,11.0,70,0.00,,---,0.00,VWS V14.01,2013-03-21 05:25:00,
2013-03-21 00:30:00,19.7,11.8,30.13,NNW,329,7.0,7.0,71,0.00,,---,0.00,VWS V14.01,2013-03-21 05:30:00,
2013-03-21 00:35:00,19.6,11.4,30.13,NNW,329,7.0,14.0,70,0.00,,---,0.00,VWS V14.01,2013-03-21 05:35:00,
2013-03-21 00:40:00,19.6,11.7,30.13,NNW,327,8.0,14.0,71,0.00,,---,0.00,VWS V14.01,2013-03-21 05:40:00,
2013-03-21 00:45:00,19.5,11.6,30.13,NNW,329,7.0,14.0,71,0.00,,---,0.00,VWS V14.01,2013-03-21 05:45:00,
2013-03-21 00:50:00,19.4,11.9,30.13,North,360,9.0,14.0,72,0.00,,---,0.00,VWS V14.01,2013-03-21 05:50:00,
2013-03-21 00:55:00,19.4,11.2,30.13,NW,311,6.0,14.0,70,0.00,,---,0.00,VWS V14.01,2013-03-21 05:55:00,
2013-03-21 01:00:00,19.3,11.1,30.12,NW,309,10.0,10.0,70,0.00,,---,0.00,VWS V14.01,2013-03-21 06:00:00,
2013-03-21 01:05:00,19.2,11.4,30.12,NW,311,8.0,13.0,71,0.00,,---,0.00,VWS V14.01,2013-03-21 06:05:00,
2013-03-21 01:10:00,19.2,11.4,30.12,NNW,337,4.0,13.0,71,0.00,,---,0.00,VWS V14.01,2013-03-21 06:10:00,
2013-03-21 01:15:00,19.1,11.3,30.12,NW,318,5.0,13.0,71,0.00,,---,0.00,VWS V14.01,2013-03-21 06:15:00,
2013-03-21 01:20:00,18.9,11.4,30.12,NW,325,2.0,13.0,72,0.00,,---,0.00,VWS V14.01,2013-03-21 06:20:00,
2013-03-21 01:25:00,18.8,11.6,30.12,NW,323,6.0,13.0,73,0.00,,---,0.00,VWS V14.01,2013-03-21 06:25:00,
2013-03-21 01:30:00,18.6,11.4,30.12,NW,326,6.0,8.0,73,0.00,,---,0.00,VWS V14.01,2013-03-21 06:30:00,
2013-03-21 01:35:00,18.6,11.4,30.12,NNW,336,10.0,12.0,73,0.00,,---,0.00,VWS V14.01,2013-03-21 06:35:00,
2013-03-21 01:40:00,18.5,11.3,30.13,NW,323,5.0,14.0,73,0.00,,---,0.00,VWS V14.01,2013-03-21 06:40:00,
2013-03-21 01:45:00,18.3,10.8,30.12,NW,315,7.0,14.0,72,0.00,,---,0.00,VWS V14.01,2013-03-21 06:45:00,
2013-03-21 01:50:00,18.2,10.7,30.12,NW,321,8.0,14.0,72,0.00,,---,0.00,VWS V14.01,2013-03-21 06:50:00,
2013-03-21 01:55:00,18.1,10.3,30.12,NNW,329,11.0,14.0,71,0.00,,---,0.00,VWS V14.01,2013-03-21 06:55:00,
2013-03-21 02:00:00,18.1,10.0,30.13,NW,313,2.0,7.0,70,0.00,,---,0.00,VWS V14.01,2013-03-21 07:00:00,
2013-03-21 02:05:00,18.0,10.2,30.13,WNW,288,5.0,10.0,71,0.00,,---,0.00,VWS V14.01,2013-03-21 07:05:00,
2013-03-21 02:10:00,17.9,10.1,30.13,NNW,331,8.0,11.0,71,0.00,,---,0.00,VWS V14.01,2013-03-21 07:10:00,
2013-03-21 02:15:00,17.8,10.0,30.13,NW,320,2.0,11.0,71,0.00,,---,0.00,VWS V14.01,2013-03-21 07:15:00,
2013-03-21 02:20:00,17.7,10.2,30.13,NW,317,5.0,11.0,72,0.00,,---,0.00,VWS V14.01,2013-03-21 07:20:00,
2013-03-21 02:25:00,17.5,10.0,30.13,NW,325,6.0,11.0,72,0.00,,---,0.00,VWS V14.01,2013-03-21 07:25:00,
2013-03-21 02:30:00,17.5,10.0,30.13,NNW,327,7.0,8.0,72,0.00,,---,0.00,VWS V14.01,2013-03-21 07:30:00,
2013-03-21 02:35:00,17.4,9.9,30.13,NW,312,7.0,11.0,72,0.00,,---,0.00,VWS V14.01,2013-03-21 07:35:00,
2013-03-21 02:40:00,17.3,9.8,30.13,NNW,333,6.0,11.0,72,0.00,,---,0.00,VWS V14.01,2013-03-21 07:40:00,
2013-03-21 02:45:00,17.1,9.9,30.13,NNW,332,2.0,11.0,73,0.00,,---,0.00,VWS V14.01,2013-03-21 07:45:00,
2013-03-21 02:50:00,17.0,9.9,30.13,NNW,333,4.0,11.0,73,0.00,,---,0.00,VWS V14.01,2013-03-21 07:50:00,
2013-03-21 02:55:00,16.9,10.1,30.13,NNW,331,3.0,11.0,74,0.00,,---,0.00,VWS V14.01,2013-03-21 07:55:00,
2013-03-21 03:00:00,16.7,9.6,30.13,NNW,329,5.0,5.0,73,0.00,,---,0.00,VWS V14.01,2013-03-21 08:00:00,
2013-03-21 03:05:00,16.6,9.8,30.13,NW,320,6.0,7.0,74,0.00,,---,0.00,VWS V14.01,2013-03-21 08:05:00,
2013-03-21 03:10:00,16.5,9.7,30.13,NNW,345,2.0,7.0,74,0.00,,---,0.00,VWS V14.01,2013-03-21 08:10:00,
2013-03-21 03:15:00,16.4,9.6,30.12,NNW,346,2.0,7.0,74,0.00,,---,0.00,VWS V14.01,2013-03-21 08:15:00,
2013-03-21 03:20:00,16.3,9.8,30.13,NNW,345,4.0,7.0,75,0.00,,---,0.00,VWS V14.01,2013-03-21 08:20:00,
2013-03-21 03:25:00,16.2,9.7,30.13,NNW,332,5.0,7.0,75,0.00,,---,0.00,VWS V14.01,2013-03-21 08:25:00,
2013-03-21 03:30:00,16.1,9.6,30.12,NNW,332,4.0,5.0,75,0.00,,---,0.00,VWS V14.01,2013-03-21 08:30:00,
2013-03-21 03:35:00,16.0,9.5,30.12,NNW,340,3.0,6.0,75,0.00,,---,0.00,VWS V14.01,2013-03-21 08:35:00,
2013-03-21 03:40:00,15.9,9.4,30.12,NNW,342,2.0,6.0,75,0.00,,---,0.00,VWS V14.01,2013-03-21 08:40:00,
2013-03-21 03:45:00,15.8,9.6,30.12,North,360,2.0,7.0,76,0.00,,---,0.00,VWS V14.01,2013-03-21 08:45:00,
2013-03-21 03:50:00,15.7,9.5,30.12,North,350,4.0,7.0,76,0.00,,---,0.00,VWS V14.01,2013-03-21 08:50:00,
2013-03-21 03:55:00,15.5,9.3,30.12,NNE,13,4.0,7.0,76,0.00,,---,0.00,VWS V14.01,2013-03-21 08:55:00,
2013-03-21 04:00:00,15.4,9.5,30.12,North,11,3.0,3.0,77,0.00,,---,0.00,VWS V14.01,2013-03-21 09:00:00,
2013-03-21 04:05:00,15.3,9.4,30.12,NNW,342,4.0,6.0,77,0.00,,---,0.00,VWS V14.01,2013-03-21 09:05:00,
2013-03-21 04:10:00,15.3,9.4,30.11,NNE,16,4.0,7.0,77,0.00,,---,0.00,VWS V14.01,2013-03-21 09:10:00,
2013-03-21 04:15:00,15.1,9.2,30.11,NNW,330,2.0,7.0,77,0.00,,---,0.00,VWS V14.01,2013-03-21 09:15:00,
2013-03-21 04:20:00,15.1,9.5,30.11,NNW,328,1.0,7.0,78,0.00,,---,0.00,VWS V14.01,2013-03-21 09:20:00,
2013-03-21 04:25:00,15.0,9.4,30.11,NNW,328,2.0,7.0,78,0.00,,---,0.00,VWS V14.01,2013-03-21 09:25:00,
2013-03-21 04:30:00,14.9,9.3,30.11,NNW,329,3.0,4.0,78,0.00,,---,0.00,VWS V14.01,2013-03-21 09:30:00,
2013-03-21 04:35:00,14.9,9.3,30.11,NNW,329,2.0,4.0,78,0.00,,---,0.00,VWS V14.01,2013-03-21 09:35:00,
2013-03-21 04:40:00,14.8,9.2,30.11,NNW,330,2.0,4.0,78,0.00,,---,0.00,VWS V14.01,2013-03-21 09:40:00,
2013-03-21 04:45:00,14.8,9.2,30.11,NNW,330,4.0,5.0,78,0.00,,---,0.00,VWS V14.01,2013-03-21 09:45:00,
2013-03-21 04:50:00,14.7,9.1,30.12,NNW,327,5.0,5.0,78,0.00,,---,0.00,VWS V14.01,2013-03-21 09:50:00,
2013-03-21 04:55:00,14.6,9.3,30.12,NW,322,1.0,6.0,79,0.00,,---,0.00,VWS V14.01,2013-03-21 09:55:00,
2013-03-21 05:00:00,14.6,9.3,30.12,NNW,333,4.0,4.0,79,0.00,,---,0.00,VWS V14.01,2013-03-21 10:00:00,
2013-03-21 05:05:00,14.5,9.2,30.12,NNW,332,1.0,5.0,79,0.00,,---,0.00,VWS V14.01,2013-03-21 10:05:00,
2013-03-21 05:10:00,14.5,9.2,30.12,NNW,332,1.0,5.0,79,0.00,,---,0.00,VWS V14.01,2013-03-21 10:10:00,
2013-03-21 05:15:00,14.4,9.1,30.12,NNW,332,2.0,5.0,79,0.00,,---,0.00,VWS V14.01,2013-03-21 10:15:00,
2013-03-21 05:20:00,14.3,9.0,30.12,NNW,332,1.0,5.0,79,0.00,,---,0.00,VWS V14.01,2013-03-21 10:20:00,
2013-03-21 05:25:00,14.1,8.8,30.12,NNW,332,0.0,5.0,79,0.00,,---,0.00,VWS V14.01,2013-03-21 10:25:00,
2013-03-21 05:30:00,14.0,9.0,30.13,NNW,332,2.0,3.0,80,0.00,,---,0.00,VWS V14.01,2013-03-21 10:30:00,
2013-03-21 05:35:00,13.9,8.9,30.13,NNW,332,0.0,5.0,80,0.00,,---,0.00,VWS V14.01,2013-03-21 10:35:00,
2013-03-21 05:40:00,13.8,8.8,30.13,NNW,332,0.0,5.0,80,0.00,,---,0.00,VWS V14.01,2013-03-21 10:40:00,
2013-03-21 05:45:00,13.7,9.0,30.13,NNW,332,0.0,5.0,81,0.00,,---,0.00,VWS V14.01,2013-03-21 10:45:00,
2013-03-21 05:50:00,13.5,8.8,30.13,NNW,332,0.0,5.0,81,0.00,,---,0.00,VWS V14.01,2013-03-21 10:50:00,
2013-03-21 05:55:00,13.4,8.7,30.13,NNW,332,1.0,5.0,81,0.00,,---,0.00,VWS V14.01,2013-03-21 10:55:00,
2013-03-21 06:00:00,13.4,8.7,30.13,NNW,332,1.0,1.0,81,0.00,,---,0.00,VWS V14.01,2013-03-21 11:00:00,
2013-03-21 06:05:00,13.3,8.6,30.13,NNW,332,2.0,2.0,81,0.00,,---,0.00,VWS V14.01,2013-03-21 11:05:00,
2013-03-21 06:10:00,13.2,8.8,30.13,NNW,332,1.0,2.0,82,0.00,,---,0.00,VWS V14.01,2013-03-21 11:10:00,
2013-03-21 06:15:00,13.1,8.6,30.13,NNW,332,0.0,5.0,82,0.00,,---,0.00,VWS V14.01,2013-03-21 11:15:00,
2013-03-21 06:20:00,13.0,8.6,30.13,NNW,332,0.0,5.0,82,0.00,,---,0.00,VWS V14.01,2013-03-21 11:20:00,
2013-03-21 06:25:00,12.9,8.4,30.13,NNW,332,0.0,5.0,82,0.00,,---,0.00,VWS V14.01,2013-03-21 11:25:00,
2013-03-21 06:30:00,12.7,8.3,30.13,NNW,332,0.0,0.0,82,0.00,,---,0.00,VWS V14.01,2013-03-21 11:30:00,
2013-03-21 06:35:00,12.3,7.9,30.13,NNW,332,1.0,2.0,82,0.00,,---,0.00,VWS V14.01,2013-03-21 11:35:00,
2013-03-21 06:40:00,12.1,7.9,30.13,NNW,332,1.0,2.0,83,0.00,,---,0.00,VWS V14.01,2013-03-21 11:40:00,
2013-03-21 06:45:00,12.1,8.2,30.13,NNW,332,0.0,2.0,84,0.00,,---,0.00,VWS V14.01,2013-03-21 11:45:00,
2013-03-21 06:50:00,12.1,8.2,30.13,NNW,332,0.0,2.0,84,0.00,,---,0.00,VWS V14.01,2013-03-21 11:50:00,
2013-03-21 06:55:00,12.1,8.2,30.13,NNW,332,1.0,3.0,84,0.00,,---,0.00,VWS V14.01,2013-03-21 11:55:00,
2013-03-21 07:00:00,12.1,8.2,30.13,NNW,332,0.0,2.0,84,0.00,,---,0.00,VWS V14.01,2013-03-21 12:00:00,
2013-03-21 07:05:00,12.2,8.3,30.13,NNW,332,0.0,2.0,84,0.00,,---,0.00,VWS V14.01,2013-03-21 12:05:00,
2013-03-21 07:10:00,12.2,8.3,30.13,NNW,332,0.0,2.0,84,0.00,,---,0.00,VWS V14.01,2013-03-21 12:10:00,
2013-03-21 07:15:00,12.0,8.1,30.14,NNW,332,2.0,2.0,84,0.00,,---,0.00,VWS V14.01,2013-03-21 12:15:00,
2013-03-21 07:20:00,11.9,8.0,30.14,NNW,332,1.0,2.0,84,0.00,,---,0.00,VWS V14.01,2013-03-21 12:20:00,
2013-03-21 07:25:00,12.1,8.2,30.14,NNW,332,0.0,2.0,84,0.00,,---,0.00,VWS V14.01,2013-03-21 12:25:00,
2013-03-21 07:30:00,12.3,8.7,30.14,NNW,332,1.0,2.0,85,0.00,,---,0.00,VWS V14.01,2013-03-21 12:30:00,
2013-03-21 07:35:00,12.5,8.9,30.15,NW,323,0.0,5.0,85,0.00,,---,0.00,VWS V14.01,2013-03-21 12:35:00,
2013-03-21 07:40:00,12.8,9.1,30.15,NW,321,1.0,5.0,85,0.00,,---,0.00,VWS V14.01,2013-03-21 12:40:00,
2013-03-21 07:45:00,13.3,9.4,30.15,WNW,300,0.0,6.0,84,0.00,,---,0.00,VWS V14.01,2013-03-21 12:45:00,
2013-03-21 07:50:00,13.6,9.7,30.15,WNW,300,2.0,6.0,84,0.00,,---,0.00,VWS V14.01,2013-03-21 12:50:00,
2013-03-21 07:55:00,14.0,9.8,30.15,WNW,300,5.0,6.0,83,0.00,,---,0.00,VWS V14.01,2013-03-21 12:55:00,
2013-03-21 08:00:00,14.3,10.1,30.15,NW,319,1.0,2.0,83,0.00,,---,0.00,VWS V14.01,2013-03-21 13:00:00,
2013-03-21 08:05:00,14.6,10.1,30.15,WNW,294,5.0,6.0,82,0.00,,---,0.00,VWS V14.01,2013-03-21 13:05:00,
2013-03-21 08:10:00,14.9,10.1,30.15,NW,320,6.0,7.0,81,0.00,,---,0.00,VWS V14.01,2013-03-21 13:10:00,
2013-03-21 08:15:00,15.2,10.4,30.15,NW,314,3.0,7.0,81,0.00,,---,0.00,VWS V14.01,2013-03-21 13:15:00,
2013-03-21 08:20:00,15.5,10.2,30.15,WNW,291,7.0,7.0,79,0.00,,---,0.00,VWS V14.01,2013-03-21 13:20:00,
2013-03-21 08:25:00,15.8,10.5,30.15,WNW,301,4.0,7.0,79,0.00,,---,0.00,VWS V14.01,2013-03-21 13:25:00,
2013-03-21 08:30:00,16.1,10.5,30.15,NW,308,3.0,6.0,78,0.00,,---,0.00,VWS V14.01,2013-03-21 13:30:00,
2013-03-21 08:35:00,16.4,10.5,30.15,NW,308,2.0,6.0,77,0.00,,---,0.00,VWS V14.01,2013-03-21 13:35:00,
2013-03-21 08:40:00,16.6,10.7,30.15,North,349,4.0,7.0,77,0.00,,---,0.00,VWS V14.01,2013-03-21 13:40:00,
2013-03-21 08:45:00,17.0,10.8,30.15,North,9,6.0,8.0,76,0.00,,---,0.00,VWS V14.01,2013-03-21 13:45:00,
2013-03-21 08:50:00,17.3,11.1,30.15,North,5,5.0,8.0,76,0.00,,---,0.00,VWS V14.01,2013-03-21 13:50:00,
2013-03-21 08:55:00,17.6,11.0,30.15,NW,315,7.0,8.0,75,0.00,,---,0.00,VWS V14.01,2013-03-21 13:55:00,
2013-03-21 09:00:00,17.8,10.9,30.15,NW,306,2.0,2.0,74,0.00,,---,0.00,VWS V14.01,2013-03-21 14:00:00,
2013-03-21 09:05:00,18.1,10.9,30.16,NW,311,2.0,7.0,73,0.00,,---,0.00,VWS V14.01,2013-03-21 14:05:00,
2013-03-21 09:10:00,18.7,11.5,30.16,NW,311,4.0,7.0,73,0.00,,---,0.00,VWS V14.01,2013-03-21 14:10:00,
2013-03-21 09:15:00,19.4,11.2,30.16,North,5,4.0,7.0,70,0.00,,---,0.00,VWS V14.01,2013-03-21 14:15:00,
2013-03-21 09:20:00,19.9,11.7,30.16,NNW,330,0.0,7.0,70,0.00,,---,0.00,VWS V14.01,2013-03-21 14:20:00,
2013-03-21 09:25:00,20.2,11.0,30.16,NE,46,7.0,8.0,67,0.00,,---,0.00,VWS V14.01,2013-03-21 14:25:00,
2013-03-21 09:30:00,20.5,11.0,30.16,NNE,15,0.0,0.0,66,0.00,,---,0.00,VWS V14.01,2013-03-21 14:30:00,
2013-03-21 09:35:00,20.7,11.1,30.16,NW,306,5.0,5.0,66,0.00,,---,0.00,VWS V14.01,2013-03-21 14:35:00,
2013-03-21 09:40:00,20.7,10.8,30.16,NNW,346,0.0,7.0,65,0.00,,---,0.00,VWS V14.01,2013-03-21 14:40:00,
2013-03-21 09:46:00,21.2,11.3,30.15,WNW,295,3.0,3.0,65,0.00,,---,0.00,VWS V14.01,2013-03-21 14:46:00,
2013-03-21 09:51:00,21.4,11.5,30.15,WNW,295,2.0,5.0,65,0.00,,---,0.00,VWS V14.01,2013-03-21 14:51:00,
2013-03-21 09:56:00,21.6,11.0,30.15,North,9,4.0,8.0,63,0.00,,---,0.00,VWS V14.01,2013-03-21 14:56:00,
2013-03-21 10:00:00,21.7,10.7,30.15,North,5,0.0,8.0,62,0.00,,---,0.00,VWS V14.01,2013-03-21 15:00:00,
2013-03-21 10:01:00,21.8,10.4,30.15,NNW,333,0.0,5.0,61,0.00,,---,0.00,VWS V14.01,2013-03-21 15:01:00,
2013-03-21 10:07:00,22.0,11.0,30.14,WSW,242,3.0,5.0,62,0.00,,---,0.00,VWS V14.01,2013-03-21 15:07:00,
2013-03-21 10:12:00,22.3,11.3,30.14,SW,226,1.0,5.0,62,0.00,,---,0.00,VWS V14.01,2013-03-21 15:12:00,
2013-03-21 10:17:00,22.8,10.6,30.14,WNW,296,4.0,6.0,59,0.00,,---,0.00,VWS V14.01,2013-03-21 15:17:00,
2013-03-21 10:22:00,22.6,9.7,30.14,NNW,330,1.0,6.0,57,0.00,,---,0.00,VWS V14.01,2013-03-21 15:22:00,
2013-03-21 10:27:00,22.7,10.2,30.14,NNW,327,6.0,7.0,58,0.00,,---,0.00,VWS V14.01,2013-03-21 15:27:00,
2013-03-21 10:30:00,22.8,10.2,30.14,WNW,294,0.0,7.0,58,0.00,,---,0.00,VWS V14.01,2013-03-21 15:30:00,
2013-03-21 10:32:00,23.0,10.1,30.14,WNW,293,1.0,6.0,57,0.00,,---,0.00,VWS V14.01,2013-03-21 15:32:00,
2013-03-21 10:37:00,23.3,10.7,30.14,WSW,246,5.0,7.0,58,0.00,,---,0.00,VWS V14.01,2013-03-21 15:37:00,
2013-03-21 10:42:00,23.5,10.5,30.14,SSE,156,0.0,7.0,57,0.00,,---,0.00,VWS V14.01,2013-03-21 15:42:00,
2013-03-21 10:47:00,23.7,10.3,30.14,WSW,250,4.0,7.0,56,0.00,,---,0.00,VWS V14.01,2013-03-21 15:47:00,
2013-03-21 10:52:00,23.9,10.5,30.14,WSW,250,0.0,7.0,56,0.00,,---,0.00,VWS V14.01,2013-03-21 15:52:00,
2013-03-21 10:57:00,24.2,10.4,30.14,West,273,6.0,8.0,55,0.00,,---,0.00,VWS V14.01,2013-03-21 15:57:00,
2013-03-21 11:00:00,24.3,11.3,30.14,NW,306,2.0,8.0,57,0.00,,---,0.00,VWS V14.01,2013-03-21 16:00:00,
2013-03-21 11:02:00,24.3,10.5,30.14,WSW,240,0.0,6.0,55,0.00,,---,0.00,VWS V14.01,2013-03-21 16:02:00,
2013-03-21 11:07:00,24.5,10.7,30.14,NW,318,6.0,9.0,55,0.00,,---,0.00,VWS V14.01,2013-03-21 16:07:00,
2013-03-21 11:12:00,24.4,10.6,30.14,NW,315,7.0,9.0,55,0.00,,---,0.00,VWS V14.01,2013-03-21 16:12:00,
2013-03-21 11:17:00,24.7,10.4,30.14,NW,316,5.0,9.0,54,0.00,,---,0.00,VWS V14.01,2013-03-21 16:17:00,
2013-03-21 11:22:00,24.8,11.3,30.14,WNW,289,1.0,9.0,56,0.00,,---,0.00,VWS V14.01,2013-03-21 16:22:00,
2013-03-21 11:27:00,25.5,10.8,30.14,NW,312,6.0,9.0,53,0.00,,---,0.00,VWS V14.01,2013-03-21 16:27:00,
2013-03-21 11:30:00,25.5,11.2,30.14,WNW,300,4.0,9.0,54,0.00,,---,0.00,VWS V14.01,2013-03-21 16:30:00,
2013-03-21 11:32:00,25.4,11.1,30.14,West,271,1.0,7.0,54,0.00,,---,0.00,VWS V14.01,2013-03-21 16:32:00,
2013-03-21 11:37:00,25.7,12.2,30.14,SW,215,0.0,7.0,56,0.00,,---,0.00,VWS V14.01,2013-03-21 16:37:00,
2013-03-21 11:42:00,26.6,11.8,30.13,NW,321,2.0,7.0,53,0.00,,---,0.00,VWS V14.01,2013-03-21 16:42:00,
2013-03-21 11:47:00,26.6,11.4,30.13,WNW,294,7.0,9.0,52,0.00,,---,0.00,VWS V14.01,2013-03-21 16:47:00,
2013-03-21 11:52:00,26.2,10.6,30.13,WNW,288,1.0,9.0,51,0.00,,---,0.00,VWS V14.01,2013-03-21 16:52:00,
2013-03-21 11:57:00,26.2,11.4,30.13,NNE,17,5.0,9.0,53,0.00,,---,0.00,VWS V14.01,2013-03-21 16:57:00,
2013-03-21 12:00:00,26.3,11.1,30.13,North,355,1.0,9.0,52,0.00,,---,0.00,VWS V14.01,2013-03-21 17:00:00,
2013-03-21 12:02:00,26.4,11.2,30.13,WNW,287,2.0,6.0,52,0.00,,---,0.00,VWS V14.01,2013-03-21 17:02:00,
2013-03-21 12:07:00,26.7,11.9,30.13,West,262,6.0,7.0,53,0.00,,---,0.00,VWS V14.01,2013-03-21 17:07:00,
2013-03-21 12:12:00,26.7,11.0,30.13,WNW,296,1.0,9.0,51,0.00,,---,0.00,VWS V14.01,2013-03-21 17:12:00,
2013-03-21 12:17:00,27.2,11.9,30.13,North,9,1.0,9.0,52,0.00,,---,0.00,VWS V14.01,2013-03-21 17:17:00,
2013-03-21 12:22:00,27.8,13.3,30.13,WSW,256,5.0,9.0,54,0.00,,---,0.00,VWS V14.01,2013-03-21 17:22:00,
2013-03-21 12:27:00,28.4,12.6,30.13,NW,319,5.0,10.0,51,0.00,,---,0.00,VWS V14.01,2013-03-21 17:27:00,
2013-03-21 12:30:00,28.3,12.1,30.13,NW,307,8.0,10.0,50,0.00,,---,0.00,VWS V14.01,2013-03-21 17:30:00,
2013-03-21 12:32:00,28.1,12.3,30.13,NW,325,1.0,11.0,51,0.00,,---,0.00,VWS V14.01,2013-03-21 17:32:00,
2013-03-21 12:37:00,28.1,12.8,30.12,NW,308,5.0,11.0,52,0.00,,---,0.00,VWS V14.01,2013-03-21 17:37:00,
2013-03-21 12:42:00,28.5,14.0,30.13,NNW,329,5.0,11.0,54,0.00,,---,0.00,VWS V14.01,2013-03-21 17:42:00,
2013-03-21 12:47:00,28.6,12.3,30.12,West,276,4.0,11.0,50,0.00,,---,0.00,VWS V14.01,2013-03-21 17:47:00,
2013-03-21 12:52:00,28.7,12.9,30.12,WNW,283,2.0,11.0,51,0.00,,---,0.00,VWS V14.01,2013-03-21 17:52:00,
2013-03-21 12:57:00,29.0,12.7,30.12,NNW,330,0.0,11.0,50,0.00,,---,0.00,VWS V14.01,2013-03-21 17:57:00,
2013-03-21 13:00:00,29.1,13.2,30.12,NW,312,4.0,11.0,51,0.00,,---,0.00,VWS V14.01,2013-03-21 18:00:00,
2013-03-21 13:02:00,29.4,13.5,30.12,NW,312,0.0,4.0,51,0.00,,---,0.00,VWS V14.01,2013-03-21 18:02:00,
2013-03-21 13:07:00,29.7,12.9,30.11,WNW,299,1.0,7.0,49,0.00,,---,0.00,VWS V14.01,2013-03-21 18:07:00,
2013-03-21 13:12:00,29.9,14.0,30.11,NNE,17,0.0,7.0,51,0.00,,---,0.00,VWS V14.01,2013-03-21 18:12:00,
2013-03-21 13:17:00,30.0,12.7,30.11,NNE,23,0.0,7.0,48,0.00,,---,0.00,VWS V14.01,2013-03-21 18:17:00,
2013-03-21 13:22:00,29.9,13.1,30.11,NNE,15,0.0,9.0,49,0.00,,---,0.00,VWS V14.01,2013-03-21 18:22:00,
2013-03-21 13:27:00,30.1,13.7,30.11,NNE,20,1.0,9.0,50,0.00,,---,0.00,VWS V14.01,2013-03-21 18:27:00,
2013-03-21 13:30:00,30.2,13.8,30.11,North,355,6.0,9.0,50,0.00,,---,0.00,VWS V14.01,2013-03-21 18:30:00,
2013-03-21 13:32:00,30.4,13.5,30.11,NW,316,2.0,6.0,49,0.00,,---,0.00,VWS V14.01,2013-03-21 18:32:00,
2013-03-21 13:37:00,30.4,13.5,30.11,NNW,335,5.0,9.0,49,0.00,,---,0.00,VWS V14.01,2013-03-21 18:37:00,
2013-03-21 13:42:00,30.3,13.4,30.11,WNW,296,0.0,9.0,49,0.00,,---,0.00,VWS V14.01,2013-03-21 18:42:00,
2013-03-21 13:47:00,30.8,13.9,30.10,SW,235,2.0,9.0,49,0.00,,---,0.00,VWS V14.01,2013-03-21 18:47:00,
2013-03-21 13:52:00,31.0,13.1,30.10,ESE,107,1.0,9.0,47,0.00,,---,0.00,VWS V14.01,2013-03-21 18:52:00,
2013-03-21 13:57:00,31.5,14.1,30.10,South,169,1.0,9.0,48,0.00,,---,0.00,VWS V14.01,2013-03-21 18:57:00,
2013-03-21 14:00:00,31.6,13.7,30.10,South,171,2.0,9.0,47,0.00,,---,0.00,VWS V14.01,2013-03-21 19:00:00,
2013-03-21 14:02:00,31.9,14.9,30.10,North,355,1.0,5.0,49,0.00,,---,0.00,VWS V14.01,2013-03-21 19:02:00,
2013-03-21 14:07:00,32.3,13.9,30.09,NNW,333,0.0,5.0,46,0.00,,---,0.00,VWS V14.01,2013-03-21 19:07:00,
2013-03-21 14:12:00,32.3,13.4,30.09,WSW,244,9.0,9.0,45,0.00,,---,0.00,VWS V14.01,2013-03-21 19:12:00,
2013-03-21 14:17:00,31.9,13.0,30.09,WNW,288,2.0,9.0,45,0.00,,---,0.00,VWS V14.01,2013-03-21 19:17:00,
2013-03-21 14:22:00,31.8,13.4,30.09,WNW,301,5.0,9.0,46,0.00,,---,0.00,VWS V14.01,2013-03-21 19:22:00,
2013-03-21 14:27:00,31.8,13.9,30.08,WNW,284,0.0,9.0,47,0.00,,---,0.00,VWS V14.01,2013-03-21 19:27:00,
2013-03-21 14:30:00,31.9,14.0,30.08,NW,312,7.0,9.0,47,0.00,,---,0.00,VWS V14.01,2013-03-21 19:30:00,
2013-03-21 14:32:00,32.1,13.7,30.08,West,269,3.0,7.0,46,0.00,,---,0.00,VWS V14.01,2013-03-21 19:32:00,
2013-03-21 14:37:00,32.3,15.3,30.08,NNW,338,3.0,8.0,49,0.00,,---,0.00,VWS V14.01,2013-03-21 19:37:00,
2013-03-21 14:42:00,32.6,15.1,30.08,NW,323,1.0,8.0,48,0.00,,---,0.00,VWS V14.01,2013-03-21 19:42:00,
2013-03-21 14:47:00,32.7,14.2,30.08,WNW,302,5.0,9.0,46,0.00,,---,0.00,VWS V14.01,2013-03-21 19:47:00,
2013-03-21 14:52:00,32.6,14.6,30.07,North,349,6.0,9.0,47,0.00,,---,0.00,VWS V14.01,2013-03-21 19:52:00,
2013-03-21 14:57:00,32.5,15.0,30.07,NNE,15,8.0,9.0,48,0.00,,---,0.00,VWS V14.01,2013-03-21 19:57:00,
2013-03-21 15:00:00,32.6,14.6,30.07,North,355,0.0,9.0,47,0.00,,---,0.00,VWS V14.01,2013-03-21 20:00:00,
2013-03-21 15:02:00,32.8,14.8,30.07,North,9,5.0,8.0,47,0.00,,---,0.00,VWS V14.01,2013-03-21 20:02:00,
2013-03-21 15:07:00,32.8,13.8,30.07,NW,311,4.0,9.0,45,0.00,,---,0.00,VWS V14.01,2013-03-21 20:07:00,
2013-03-21 15:12:00,32.8,13.8,30.07,WNW,298,4.0,10.0,45,0.00,,---,0.00,VWS V14.01,2013-03-21 20:12:00,
2013-03-21 15:17:00,32.8,14.3,30.07,WNW,294,3.0,10.0,46,0.00,,---,0.00,VWS V14.01,2013-03-21 20:17:00,
2013-03-21 15:22:00,32.9,14.4,30.06,NW,316,5.0,10.0,46,0.00,,---,0.00,VWS V14.01,2013-03-21 20:22:00,
2013-03-21 15:27:00,32.8,14.3,30.06,NW,313,0.0,10.0,46,0.00,,---,0.00,VWS V14.01,2013-03-21 20:27:00,
2013-03-21 15:30:00,32.8,14.3,30.06,NW,313,0.0,10.0,46,0.00,,---,0.00,VWS V14.01,2013-03-21 20:30:00,
2013-03-21 15:32:00,32.9,14.9,30.06,NW,317,2.0,3.0,47,0.00,,---,0.00,VWS V14.01,2013-03-21 20:32:00,
2013-03-21 15:37:00,33.4,14.9,30.06,ENE,63,1.0,4.0,46,0.00,,---,0.00,VWS V14.01,2013-03-21 20:37:00,
2013-03-21 15:42:00,33.8,15.7,30.06,West,265,1.0,6.0,47,0.00,,---,0.00,VWS V14.01,2013-03-21 20:42:00,
2013-03-21 15:47:00,34.0,14.9,30.06,West,265,2.0,6.0,45,0.00,,---,0.00,VWS V14.01,2013-03-21 20:47:00,
2013-03-21 15:52:00,33.9,14.8,30.06,West,267,5.0,7.0,45,0.00,,---,0.00,VWS V14.01,2013-03-21 20:52:00,
2013-03-21 15:57:00,34.0,14.4,30.05,WNW,300,0.0,7.0,44,0.00,,---,0.00,VWS V14.01,2013-03-21 20:57:00,
2013-03-21 16:00:00,33.9,14.3,30.06,SW,236,0.0,7.0,44,0.00,,---,0.00,VWS V14.01,2013-03-21 21:00:00,
2013-03-21 16:02:00,33.7,14.1,30.05,SSE,159,1.0,5.0,44,0.00,,---,0.00,VWS V14.01,2013-03-21 21:02:00,
2013-03-21 16:07:00,34.1,15.5,30.06,West,280,5.0,5.0,46,0.00,,---,0.00,VWS V14.01,2013-03-21 21:07:00,
2013-03-21 16:12:00,34.2,15.1,30.05,WSW,253,4.0,8.0,45,0.00,,---,0.00,VWS V14.01,2013-03-21 21:12:00,
2013-03-21 16:17:00,34.1,14.5,30.05,WNW,288,7.0,8.0,44,0.00,,---,0.00,VWS V14.01,2013-03-21 21:17:00,
2013-03-21 16:22:00,33.9,14.8,30.05,West,268,0.0,8.0,45,0.00,,---,0.00,VWS V14.01,2013-03-21 21:22:00,
2013-03-21 16:27:00,33.8,15.2,30.05,SW,236,0.0,8.0,46,0.00,,---,0.00,VWS V14.01,2013-03-21 21:27:00,
2013-03-21 16:30:00,34.0,14.9,30.05,SW,236,0.0,8.0,45,0.00,,---,0.00,VWS V14.01,2013-03-21 21:30:00,
2013-03-21 16:32:00,34.4,14.8,30.05,WSW,242,0.0,5.0,44,0.00,,---,0.00,VWS V14.01,2013-03-21 21:32:00,
2013-03-21 16:37:00,34.5,15.4,30.05,WSW,246,1.0,5.0,45,0.00,,---,0.00,VWS V14.01,2013-03-21 21:37:00,
2013-03-21 16:42:00,34.6,14.9,30.04,North,5,2.0,7.0,44,0.00,,---,0.00,VWS V14.01,2013-03-21 21:42:00,
2013-03-21 16:47:00,34.4,14.2,30.04,NW,315,0.0,7.0,43,0.00,,---,0.00,VWS V14.01,2013-03-21 21:47:00,
2013-03-21 16:52:00,34.4,14.8,30.04,ENE,68,0.0,7.0,44,0.00,,---,0.00,VWS V14.01,2013-03-21 21:52:00,
2013-03-21 16:57:00,34.4,14.8,30.04,West,277,3.0,7.0,44,0.00,,---,0.00,VWS V14.01,2013-03-21 21:57:00,
2013-03-21 17:00:00,34.4,14.8,30.04,West,277,1.0,7.0,44,0.00,,---,0.00,VWS V14.01,2013-03-21 22:00:00,
2013-03-21 17:02:00,34.4,14.8,30.04,West,278,2.0,4.0,44,0.00,,---,0.00,VWS V14.01,2013-03-21 22:02:00,
2013-03-21 17:07:00,34.6,15.5,30.04,West,275,0.0,4.0,45,0.00,,---,0.00,VWS V14.01,2013-03-21 22:07:00,
2013-03-21 17:12:00,34.8,14.6,30.04,NNW,346,1.0,6.0,43,0.00,,---,0.00,VWS V14.01,2013-03-21 22:12:00,
2013-03-21 17:17:00,34.7,14.5,30.04,North,5,0.0,6.0,43,0.00,,---,0.00,VWS V14.01,2013-03-21 22:17:00,
2013-03-21 17:22:00,34.4,14.2,30.05,North,360,4.0,6.0,43,0.00,,---,0.00,VWS V14.01,2013-03-21 22:22:00,
2013-03-21 17:27:00,34.4,14.2,30.05,NNW,344,0.0,6.0,43,0.00,,---,0.00,VWS V14.01,2013-03-21 22:27:00,
2013-03-21 17:30:00,34.4,14.2,30.05,NNW,344,3.0,6.0,43,0.00,,---,0.00,VWS V14.01,2013-03-21 22:30:00,
2013-03-21 17:32:00,34.4,13.7,30.05,NNW,344,0.0,4.0,42,0.00,,---,0.00,VWS V14.01,2013-03-21 22:32:00,
2013-03-21 17:37:00,34.4,13.7,30.04,NNW,347,2.0,4.0,42,0.00,,---,0.00,VWS V14.01,2013-03-21 22:37:00,
2013-03-21 17:42:00,34.1,14.0,30.04,NNW,347,0.0,4.0,43,0.00,,---,0.00,VWS V14.01,2013-03-21 22:42:00,
2013-03-21 17:47:00,34.1,13.4,30.04,NNW,334,2.0,4.0,42,0.00,,---,0.00,VWS V14.01,2013-03-21 22:47:00,
2013-03-21 17:52:00,33.9,14.3,30.04,NNW,334,0.0,4.0,44,0.00,,---,0.00,VWS V14.01,2013-03-21 22:52:00,
2013-03-21 17:57:00,33.8,13.7,30.05,NNW,334,1.0,4.0,43,0.00,,---,0.00,VWS V14.01,2013-03-21 22:57:00,
2013-03-21 18:00:00,33.8,13.7,30.05,NNW,336,1.0,4.0,43,0.00,,---,0.00,VWS V14.01,2013-03-21 23:00:00,
2013-03-21 18:02:00,33.7,13.6,30.05,NNW,338,0.0,4.0,43,0.00,,---,0.00,VWS V14.01,2013-03-21 23:02:00,
2013-03-21 18:07:00,33.6,14.0,30.05,NNW,338,1.0,4.0,44,0.00,,---,0.00,VWS V14.01,2013-03-21 23:07:00,
2013-03-21 18:12:00,33.4,14.4,30.05,East,79,2.0,6.0,45,0.00,,---,0.00,VWS V14.01,2013-03-21 23:12:00,
2013-03-21 18:17:00,33.2,13.1,30.05,East,79,0.0,6.0,43,0.00,,---,0.00,VWS V14.01,2013-03-21 23:17:00,
2013-03-21 18:22:00,33.1,13.6,30.05,East,79,0.0,6.0,44,0.00,,---,0.00,VWS V14.01,2013-03-21 23:22:00,
2013-03-21 18:27:00,33.1,13.6,30.05,East,79,0.0,6.0,44,0.00,,---,0.00,VWS V14.01,2013-03-21 23:27:00,
2013-03-21 18:30:00,33.1,13.6,30.05,East,79,1.0,6.0,44,0.00,,---,0.00,VWS V14.01,2013-03-21 23:30:00,
2013-03-21 18:32:00,33.1,14.6,30.05,East,79,0.0,1.0,46,0.00,,---,0.00,VWS V14.01,2013-03-21 23:32:00,
2013-03-21 18:37:00,33.1,14.6,30.05,East,79,0.0,1.0,46,0.00,,---,0.00,VWS V14.01,2013-03-21 23:37:00,
2013-03-21 18:42:00,33.0,14.5,30.05,East,79,0.0,1.0,46,0.00,,---,0.00,VWS V14.01,2013-03-21 23:42:00,
2013-03-21 18:47:00,32.8,14.3,30.05,East,79,0.0,1.0,46,0.00,,---,0.00,VWS V14.01,2013-03-21 23:47:00,
2013-03-21 18:52:00,32.5,14.5,30.05,East,79,0.0,1.0,47,0.00,,---,0.00,VWS V14.01,2013-03-21 23:52:00,
2013-03-21 18:57:00,32.3,14.3,30.05,East,79,0.0,1.0,47,0.00,,---,0.00,VWS V14.01,2013-03-21 23:57:00,
2013-03-21 19:00:00,32.1,13.7,30.05,East,79,0.0,1.0,46,0.00,,---,0.00,VWS V14.01,2013-03-22 00:00:00,
2013-03-21 19:02:00,31.9,13.5,30.05,East,79,0.0,0.0,46,0.00,,---,0.00,VWS V14.01,2013-03-22 00:02:00,
2013-03-21 19:07:00,31.5,13.6,30.05,East,79,0.0,0.0,47,0.00,,---,0.00,VWS V14.01,2013-03-22 00:07:00,
2013-03-21 19:12:00,31.1,13.2,30.05,East,79,0.0,0.0,47,0.00,,---,0.00,VWS V14.01,2013-03-22 00:12:00,
2013-03-21 19:17:00,30.7,13.8,30.05,East,79,0.0,0.0,49,0.00,,---,0.00,VWS V14.01,2013-03-22 00:17:00,
2013-03-21 19:22:00,30.2,13.8,30.05,East,79,0.0,0.0,50,0.00,,---,0.00,VWS V14.01,2013-03-22 00:22:00,
2013-03-21 19:27:00,29.8,13.4,30.05,East,79,0.0,0.0,50,0.00,,---,0.00,VWS V14.01,2013-03-22 00:27:00,
2013-03-21 19:30:00,29.7,13.4,30.05,East,79,0.0,0.0,50,0.00,,---,0.00,VWS V14.01,2013-03-22 00:30:00,
2013-03-21 19:32:00,29.5,14.1,30.05,East,79,0.0,0.0,52,0.00,,---,0.00,VWS V14.01,2013-03-22 00:32:00,
2013-03-21 19:37:00,29.1,14.1,30.05,East,79,0.0,0.0,53,0.00,,---,0.00,VWS V14.01,2013-03-22 00:37:00,
2013-03-21 19:42:00,28.7,14.2,30.06,East,79,0.0,0.0,54,0.00,,---,0.00,VWS V14.01,2013-03-22 00:42:00,
2013-03-21 19:47:00,28.3,14.6,30.05,East,79,0.0,0.0,56,0.00,,---,0.00,VWS V14.01,2013-03-22 00:47:00,
2013-03-21 19:52:00,27.8,15.4,30.06,East,79,0.0,0.0,59,0.00,,---,0.00,VWS V14.01,2013-03-22 00:52:00,
2013-03-21 19:57:00,27.4,15.4,30.06,East,79,0.0,0.0,60,0.00,,---,0.00,VWS V14.01,2013-03-22 00:57:00,
2013-03-21 20:00:00,27.2,15.2,30.06,East,79,0.0,0.0,60,0.00,,---,0.00,VWS V14.01,2013-03-22 01:00:00,
2013-03-21 20:02:00,26.9,15.3,30.06,East,79,0.0,0.0,61,0.00,,---,0.00,VWS V14.01,2013-03-22 01:02:00,
2013-03-21 20:07:00,26.5,14.5,30.06,East,79,0.0,0.0,60,0.00,,---,0.00,VWS V14.01,2013-03-22 01:07:00,
2013-03-21 20:12:00,26.3,14.3,30.06,East,79,0.0,0.0,60,0.00,,---,0.00,VWS V14.01,2013-03-22 01:12:00,
2013-03-21 20:17:00,26.1,15.6,30.06,East,79,0.0,0.0,64,0.00,,---,0.00,VWS V14.01,2013-03-22 01:17:00,
2013-03-21 20:22:00,25.9,15.4,30.06,East,79,0.0,0.0,64,0.00,,---,0.00,VWS V14.01,2013-03-22 01:22:00,
2013-03-21 20:27:00,25.7,16.3,30.06,East,79,0.0,0.0,67,0.00,,---,0.00,VWS V14.01,2013-03-22 01:27:00,
2013-03-21 20:30:00,25.6,16.2,30.06,East,79,0.0,0.0,67,0.00,,---,0.00,VWS V14.01,2013-03-22 01:30:00,
2013-03-21 20:32:00,25.5,15.7,30.06,East,79,0.0,0.0,66,0.00,,---,0.00,VWS V14.01,2013-03-22 01:32:00,
2013-03-21 20:37:00,25.3,15.9,30.06,East,79,0.0,0.0,67,0.00,,---,0.00,VWS V14.01,2013-03-22 01:37:00,
2013-03-21 20:42:00,25.1,16.4,30.07,East,79,0.0,0.0,69,0.00,,---,0.00,VWS V14.01,2013-03-22 01:42:00,
2013-03-21 20:47:00,24.9,16.5,30.07,East,79,0.0,0.0,70,0.00,,---,0.00,VWS V14.01,2013-03-22 01:47:00,
2013-03-21 20:52:00,24.7,16.0,30.06,East,79,0.0,0.0,69,0.00,,---,0.00,VWS V14.01,2013-03-22 01:52:00,
2013-03-21 20:57:00,24.5,16.8,30.06,East,79,0.0,0.0,72,0.00,,---,0.00,VWS V14.01,2013-03-22 01:57:00,
2013-03-21 21:00:00,24.4,16.7,30.06,East,79,0.0,0.0,72,0.00,,---,0.00,VWS V14.01,2013-03-22 02:00:00,
2013-03-21 21:02:00,24.3,16.6,30.06,East,79,0.0,0.0,72,0.00,,---,0.00,VWS V14.01,2013-03-22 02:02:00,
2013-03-21 21:07:00,24.0,16.0,30.07,East,79,0.0,0.0,71,0.00,,---,0.00,VWS V14.01,2013-03-22 02:07:00,
2013-03-21 21:12:00,23.7,15.7,30.07,East,79,0.0,6.0,71,0.00,,---,0.00,VWS V14.01,2013-03-22 02:12:00,
2013-03-21 21:17:00,23.7,15.0,30.07,East,79,0.0,6.0,69,0.00,,---,0.00,VWS V14.01,2013-03-22 02:17:00,
2013-03-21 21:22:00,23.6,15.3,30.07,East,79,0.0,6.0,70,0.00,,---,0.00,VWS V14.01,2013-03-22 02:22:00,
2013-03-21 21:27:00,23.5,15.8,30.07,East,79,2.0,6.0,72,0.00,,---,0.00,VWS V14.01,2013-03-22 02:27:00,
2013-03-21 21:30:00,23.5,16.1,30.07,East,80,0.0,6.0,73,0.00,,---,0.00,VWS V14.01,2013-03-22 02:30:00,
2013-03-21 21:32:00,23.6,15.9,30.07,SE,144,1.0,5.0,72,0.00,,---,0.00,VWS V14.01,2013-03-22 02:32:00,
2013-03-21 21:37:00,23.8,15.8,30.08,SE,144,0.0,5.0,71,0.00,,---,0.00,VWS V14.01,2013-03-22 02:37:00,
2013-03-21 21:42:00,23.9,15.9,30.08,SE,144,0.0,5.0,71,0.00,,---,0.00,VWS V14.01,2013-03-22 02:42:00,
2013-03-21 21:47:00,23.9,16.2,30.08,SE,144,0.0,5.0,72,0.00,,---,0.00,VWS V14.01,2013-03-22 02:47:00,
2013-03-21 21:53:00,23.8,16.1,30.08,SE,144,0.0,5.0,72,0.00,,---,0.00,VWS V14.01,2013-03-22 02:53:00,
2013-03-21 21:58:00,23.7,16.6,30.08,SE,144,0.0,5.0,74,0.00,,---,0.00,VWS V14.01,2013-03-22 02:58:00,
2013-03-21 22:00:00,23.7,16.6,30.08,SE,144,0.0,5.0,74,0.00,,---,0.00,VWS V14.01,2013-03-22 03:00:00,
2013-03-21 22:03:00,23.7,16.6,30.08,SE,144,0.0,0.0,74,0.00,,---,0.00,VWS V14.01,2013-03-22 03:03:00,
2013-03-21 22:08:00,23.6,16.2,30.08,SE,144,0.0,0.0,73,0.00,,---,0.00,VWS V14.01,2013-03-22 03:08:00,
2013-03-21 22:13:00,23.5,16.8,30.08,SE,144,0.0,0.0,75,0.00,,---,0.00,VWS V14.01,2013-03-22 03:13:00,
2013-03-21 22:18:00,23.3,16.9,30.08,SE,144,0.0,0.0,76,0.00,,---,0.00,VWS V14.01,2013-03-22 03:18:00,
2013-03-21 22:23:00,22.9,18.5,30.08,SE,144,0.0,0.0,83,0.00,,---,0.00,VWS V14.01,2013-03-22 03:23:00,
2013-03-21 22:28:00,22.7,16.6,30.08,SE,144,0.0,0.0,77,0.00,,---,0.00,VWS V14.01,2013-03-22 03:28:00,
2013-03-21 22:30:00,22.6,16.5,30.08,SE,144,0.0,0.0,77,0.00,,---,0.00,VWS V14.01,2013-03-22 03:30:00,
2013-03-21 22:33:00,22.5,16.4,30.08,SE,144,0.0,0.0,77,0.00,,---,0.00,VWS V14.01,2013-03-22 03:33:00,
2013-03-21 22:38:00,22.3,16.2,30.08,SE,144,0.0,0.0,77,0.00,,---,0.00,VWS V14.01,2013-03-22 03:38:00,
2013-03-21 22:43:00,22.1,16.3,30.08,SE,144,0.0,0.0,78,0.00,,---,0.00,VWS V14.01,2013-03-22 03:43:00,
2013-03-21 22:48:00,22.0,16.5,30.08,SE,144,0.0,0.0,79,0.00,,---,0.00,VWS V14.01,2013-03-22 03:48:00,
2013-03-21 22:53:00,21.7,16.2,30.08,SE,144,0.0,0.0,79,0.00,,---,0.00,VWS V14.01,2013-03-22 03:53:00,
2013-03-21 22:58:00,21.7,16.2,30.07,SE,144,0.0,0.0,79,0.00,,---,0.00,VWS V14.01,2013-03-22 03:58:00,
2013-03-21 23:00:00,21.6,16.4,30.07,SE,144,0.0,0.0,80,0.00,,---,0.00,VWS V14.01,2013-03-22 04:00:00,
2013-03-21 23:05:00,21.5,16.6,30.07,SE,144,0.0,0.0,81,0.00,,---,0.00,VWS V14.01,2013-03-22 04:05:00,
2013-03-21 23:10:00,21.3,16.4,30.07,SE,144,0.0,0.0,81,0.00,,---,0.00,VWS V14.01,2013-03-22 04:10:00,
2013-03-21 23:15:00,21.1,16.2,30.07,SE,144,0.0,0.0,81,0.00,,---,0.00,VWS V14.01,2013-03-22 04:15:00,
2013-03-21 23:20:00,20.9,16.0,30.07,SE,144,0.0,0.0,81,0.00,,---,0.00,VWS V14.01,2013-03-22 04:20:00,
2013-03-21 23:25:00,20.7,15.8,30.07,SE,144,0.0,0.0,81,0.00,,---,0.00,VWS V14.01,2013-03-22 04:25:00,
2013-03-21 23:30:00,20.6,15.7,30.07,SE,144,0.0,0.0,81,0.00,,---,0.00,VWS V14.01,2013-03-22 04:30:00,
2013-03-21 23:35:00,20.3,15.4,30.08,SE,144,0.0,0.0,81,0.00,,---,0.00,VWS V14.01,2013-03-22 04:35:00,
2013-03-21 23:40:00,20.0,15.1,30.07,SE,144,0.0,0.0,81,0.00,,---,0.00,VWS V14.01,2013-03-22 04:40:00,
2013-03-21 23:45:00,19.9,15.0,30.08,SE,144,0.0,0.0,81,0.00,,---,0.00,VWS V14.01,2013-03-22 04:45:00,
2013-03-21 23:50:00,19.7,14.8,30.08,SE,144,0.0,0.0,81,0.00,,---,0.00,VWS V14.01,2013-03-22 04:50:00,
2013-03-21 23:55:00,19.7,15.1,30.08,SE,144,0.0,0.0,82,0.00,,---,0.00,VWS V14.01,2013-03-22 04:55:00,